Time,TemperatureF,DewpointF,PressureIn,WindDirection,WindDirectionDegrees,WindSpeedMPH,WindSpeedGustMPH,Humidity,HourlyPrecipIn,Conditions,Clouds,dailyrainin,SoftwareType,DateUTC
2013-03-09 00:01:00,42.0,42.0,30.31,North,0,0.0,0.0,100,0.00,,,0.01,,2013-03-09 08:01:00,
2013-03-09 00:11:00,42.0,42.0,30.31,North,0,0.0,0.0,100,0.00,,,0.01,,2013-03-09 08:11:00,
2013-03-09 00:21:00,42.0,42.0,30.31,North,0,0.0,0.0,100,0.00,,,0.01,,2013-03-09 08:21:00,
2013-03-09 00:31:00,41.0,41.0,30.31,North,0,0.0,0.0,100,0.00,,,0.01,,2013-03-09 08:31:00,
2013-03-09 00:41:00,41.0,41.0,30.31,North,0,0.0,0.0,100,0.00,,,0.01,,2013-03-09 08:41:00,
2013-03-09 00:52:00,40.0,40.0,30.32,North,0,0.0,0.0,100,0.00,,,0.01,,2013-03-09 08:52:00,
2013-03-09 01:01:00,40.0,40.0,30.33,North,0,0.0,0.0,100,0.00,,,0.01,,2013-03-09 09:01:00,
2013-03-09 01:11:00,40.0,40.0,30.33,North,0,0.0,0.0,100,0.00,,,0.01,,2013-03-09 09:11:00,
2013-03-09 01:21:00,40.0,40.0,30.33,North,0,0.0,0.0,100,0.00,,,0.01,,2013-03-09 09:21:00,
2013-03-09 01:31:00,39.0,39.0,30.34,North,0,0.0,0.0,100,0.00,,,0.01,,2013-03-09 09:31:00,
2013-03-09 01:41:00,39.0,39.0,30.34,North,0,0.0,0.0,100,0.00,,,0.01,,2013-03-09 09:41:00,
2013-03-09 01:52:00,39.0,39.0,30.34,North,0,0.0,0.0,100,0.00,,,0.01,,2013-03-09 09:52:00,
2013-03-09 02:01:00,38.0,38.0,30.35,North,0,0.0,0.0,100,0.00,,,0.01,,2013-03-09 10:01:00,
2013-03-09 02:11:00,38.0,38.0,30.35,North,0,0.0,0.0,100,0.00,,,0.01,,2013-03-09 10:11:00,
2013-03-09 02:21:00,38.0,38.0,30.35,North,0,0.0,0.0,100,0.00,,,0.01,,2013-03-09 10:21:00,
2013-03-09 02:31:00,38.0,38.0,30.35,North,0,0.0,0.0,100,0.00,,,0.01,,2013-03-09 10:31:00,
2013-03-09 02:41:00,38.0,38.0,30.35,North,0,0.0,0.0,100,0.00,,,0.01,,2013-03-09 10:41:00,
2013-03-09 02:51:00,38.0,38.0,30.35,North,0,0.0,0.0,100,0.00,,,0.01,,2013-03-09 10:51:00,
2013-03-09 03:01:00,37.0,37.0,30.36,North,0,0.0,0.0,100,0.00,,,0.01,,2013-03-09 11:01:00,
2013-03-09 03:11:00,37.0,37.0,30.36,North,0,0.0,0.0,100,0.00,,,0.01,,2013-03-09 11:11:00,
2013-03-09 03:21:00,38.0,38.0,30.36,North,0,0.0,0.0,100,0.00,,,0.01,,2013-03-09 11:21:00,
2013-03-09 03:31:00,37.0,37.0,30.37,North,0,0.0,0.0,100,0.00,,,0.01,,2013-03-09 11:31:00,
2013-03-09 03:41:00,37.0,37.0,30.37,North,0,0.0,0.0,100,0.00,,,0.01,,2013-03-09 11:41:00,
2013-03-09 03:52:00,37.0,37.0,30.36,North,0,0.0,0.0,100,0.00,,,0.01,,2013-03-09 11:52:00,
2013-03-09 04:01:00,37.0,37.0,30.35,North,0,0.0,0.0,100,0.00,,,0.01,,2013-03-09 12:01:00,
2013-03-09 04:11:00,37.0,37.0,30.35,North,0,0.0,0.0,100,0.00,,,0.01,,2013-03-09 12:11:00,
2013-03-09 04:21:00,37.0,37.0,30.36,North,0,0.0,0.0,100,0.00,,,0.01,,2013-03-09 12:21:00,
2013-03-09 04:31:00,36.0,36.0,30.37,North,0,0.0,0.0,100,0.00,,,0.01,,2013-03-09 12:31:00,
2013-03-09 04:42:00,36.0,36.0,30.37,North,0,0.0,0.0,100,0.00,,,0.01,,2013-03-09 12:42:00,
2013-03-09 04:52:00,36.0,36.0,30.38,North,0,0.0,0.0,100,0.00,,,0.01,,2013-03-09 12:52:00,
2013-03-09 05:02:00,35.0,35.0,30.39,North,0,0.0,0.0,100,0.00,,,0.01,,2013-03-09 13:02:00,
2013-03-09 05:11:00,35.0,35.0,30.39,North,0,0.0,0.0,100,0.00,,,0.01,,2013-03-09 13:11:00,
2013-03-09 05:21:00,35.0,35.0,30.40,North,0,0.0,0.0,100,0.00,,,0.01,,2013-03-09 13:21:00,
2013-03-09 05:31:00,35.0,35.0,30.41,North,0,0.0,0.0,100,0.00,,,0.00,,2013-03-09 13:31:00,
2013-03-09 05:41:00,35.0,35.0,30.41,North,0,0.0,0.0,100,0.00,,,0.00,,2013-03-09 13:41:00,
2013-03-09 05:52:00,35.0,35.0,30.42,North,0,0.0,0.0,100,0.00,,,0.00,,2013-03-09 13:52:00,
2013-03-09 06:01:00,34.0,34.0,30.44,North,0,0.0,0.0,100,0.00,,,0.00,,2013-03-09 14:01:00,
2013-03-09 06:11:00,34.0,34.0,30.44,North,0,0.0,0.0,100,0.00,,,0.00,,2013-03-09 14:11:00,
2013-03-09 06:21:00,34.0,34.0,30.45,North,0,0.0,0.0,100,0.00,,,0.00,,2013-03-09 14:21:00,
2013-03-09 06:31:00,35.0,35.0,30.45,North,0,0.0,0.0,100,0.00,,,0.00,,2013-03-09 14:31:00,
2013-03-09 06:41:00,35.0,35.0,30.45,North,0,0.0,0.0,100,0.00,,,0.00,,2013-03-09 14:41:00,
2013-03-09 06:52:00,37.0,37.0,30.46,North,0,0.0,0.0,100,0.00,,,0.00,,2013-03-09 14:52:00,
2013-03-09 07:01:00,38.0,38.0,30.46,North,0,0.0,0.0,100,0.00,,,0.00,,2013-03-09 15:01:00,
2013-03-09 07:11:00,38.0,38.0,30.46,North,0,0.0,0.0,100,0.00,,,0.00,,2013-03-09 15:11:00,
2013-03-09 07:21:00,38.0,38.0,30.47,North,0,0.0,0.0,100,0.00,,,0.00,,2013-03-09 15:21:00,
2013-03-09 07:31:00,38.0,38.0,30.49,North,0,0.0,0.0,100,0.00,,,0.00,,2013-03-09 15:31:00,
2013-03-09 07:42:00,38.0,38.0,30.49,North,0,0.0,0.0,100,0.00,,,0.00,,2013-03-09 15:42:00,
2013-03-09 07:52:00,39.0,39.0,30.49,North,0,0.0,0.0,100,0.00,,,0.00,,2013-03-09 15:52:00,
2013-03-09 08:01:00,39.0,39.0,30.49,North,0,0.0,0.0,100,0.00,,,0.00,,2013-03-09 16:01:00,
2013-03-09 08:11:00,39.0,39.0,30.49,North,0,0.0,0.0,100,0.00,,,0.00,,2013-03-09 16:11:00,
2013-03-09 08:21:00,40.0,40.0,30.50,North,0,0.0,0.0,100,0.00,,,0.00,,2013-03-09 16:21:00,
2013-03-09 08:31:00,41.0,41.0,30.48,North,0,0.0,0.0,100,0.00,,,0.00,,2013-03-09 16:31:00,
2013-03-09 08:42:00,41.0,41.0,30.48,North,0,0.0,0.0,100,0.00,,,0.00,,2013-03-09 16:42:00,
2013-03-09 08:52:00,42.0,42.0,30.48,North,0,0.0,0.0,100,0.00,,,0.00,,2013-03-09 16:52:00,
2013-03-09 09:01:00,42.0,42.0,30.50,SSW,203,0.0,3.0,100,0.00,,,0.00,,2013-03-09 17:01:00,
2013-03-09 09:11:00,42.0,42.0,30.50,SSW,203,0.0,3.0,100,0.00,,,0.00,,2013-03-09 17:11:00,
2013-03-09 09:21:00,42.0,42.0,30.50,North,0,0.0,0.0,100,0.00,,,0.00,,2013-03-09 17:21:00,
2013-03-09 09:31:00,43.0,43.0,30.50,North,0,0.0,0.0,100,0.00,,,0.00,,2013-03-09 17:31:00,
2013-03-09 09:42:00,43.0,43.0,30.50,North,0,0.0,0.0,100,0.00,,,0.00,,2013-03-09 17:42:00,
2013-03-09 09:52:00,43.0,43.0,30.51,North,0,0.0,0.0,100,0.00,,,0.00,,2013-03-09 17:52:00,
2013-03-09 10:01:00,44.0,44.0,30.53,North,0,0.0,0.0,100,0.00,,,0.00,,2013-03-09 18:01:00,
2013-03-09 10:11:00,44.0,44.0,30.53,North,0,0.0,0.0,100,0.00,,,0.00,,2013-03-09 18:11:00,
2013-03-09 10:21:00,45.0,45.0,30.53,WNW,285,0.0,6.0,100,0.00,,,0.00,,2013-03-09 18:21:00,
2013-03-09 10:31:00,45.0,45.0,30.54,WNW,299,4.0,7.0,100,0.00,,,0.00,,2013-03-09 18:31:00,
2013-03-09 10:41:00,45.0,45.0,30.54,WNW,299,4.0,7.0,100,0.00,,,0.00,,2013-03-09 18:41:00,
2013-03-09 10:51:00,45.0,45.0,30.54,North,350,4.0,6.0,100,0.00,,,0.00,,2013-03-09 18:51:00,
2013-03-09 11:01:00,46.0,46.0,30.53,NNE,16,0.0,5.0,100,0.00,,,0.00,,2013-03-09 19:01:00,
2013-03-09 11:11:00,46.0,46.0,30.53,NNE,16,0.0,5.0,100,0.00,,,0.00,,2013-03-09 19:11:00,
2013-03-09 11:21:00,47.0,47.0,30.53,North,0,2.0,8.0,100,0.00,,,0.00,,2013-03-09 19:21:00,
2013-03-09 11:31:00,46.0,46.0,30.53,NW,308,7.0,11.0,100,0.00,,,0.00,,2013-03-09 19:31:00,
2013-03-09 11:41:00,46.0,46.0,30.53,NW,308,7.0,11.0,100,0.00,,,0.00,,2013-03-09 19:41:00,
2013-03-09 11:52:00,46.0,46.0,30.54,NNW,347,8.0,11.0,99,0.00,,,0.00,,2013-03-09 19:52:00,
2013-03-09 12:01:00,46.0,46.0,30.54,WNW,291,5.0,13.0,99,0.00,,,0.00,,2013-03-09 20:01:00,
2013-03-09 12:11:00,46.0,46.0,30.54,WNW,291,5.0,13.0,99,0.00,,,0.00,,2013-03-09 20:11:00,
2013-03-09 12:21:00,47.0,47.0,30.54,NW,326,2.0,9.0,99,0.00,,,0.00,,2013-03-09 20:21:00,
2013-03-09 12:31:00,48.0,47.0,30.53,West,277,0.0,6.0,98,0.00,,,0.00,,2013-03-09 20:31:00,
2013-03-09 12:41:00,48.0,47.0,30.53,West,277,0.0,6.0,98,0.00,,,0.00,,2013-03-09 20:41:00,
2013-03-09 12:52:00,49.0,48.0,30.53,NW,313,5.0,8.0,97,0.00,,,0.00,,2013-03-09 20:52:00,
2013-03-09 13:01:00,48.0,47.0,30.53,NW,317,7.0,13.0,97,0.00,,,0.00,,2013-03-09 21:01:00,
2013-03-09 13:11:00,48.0,47.0,30.53,NW,317,7.0,13.0,97,0.00,,,0.00,,2013-03-09 21:11:00,
2013-03-09 13:21:00,47.0,46.0,30.53,WNW,296,4.0,12.0,98,0.00,,,0.00,,2013-03-09 21:21:00,
2013-03-09 13:31:00,47.0,46.0,30.53,NNW,329,7.0,11.0,98,0.00,,,0.00,,2013-03-09 21:31:00,
2013-03-09 13:41:00,47.0,46.0,30.53,NNW,329,7.0,11.0,98,0.00,,,0.00,,2013-03-09 21:41:00,
2013-03-09 13:52:00,48.0,47.0,30.53,NW,313,8.0,12.0,97,0.00,,,0.00,,2013-03-09 21:52:00,
2013-03-09 14:01:00,48.0,47.0,30.53,NW,310,8.0,12.0,98,0.00,,,0.00,,2013-03-09 22:01:00,
2013-03-09 14:11:00,48.0,47.0,30.53,NW,310,8.0,12.0,98,0.00,,,0.00,,2013-03-09 22:11:00,
2013-03-09 14:21:00,48.0,47.0,30.53,WNW,295,6.0,10.0,97,0.00,,,0.00,,2013-03-09 22:21:00,
2013-03-09 14:32:00,48.0,47.0,30.53,NW,312,8.0,11.0,97,0.00,,,0.00,,2013-03-09 22:32:00,
2013-03-09 14:41:00,48.0,47.0,30.53,NW,312,8.0,11.0,97,0.00,,,0.00,,2013-03-09 22:41:00,
2013-03-09 14:51:00,48.0,47.0,30.53,NNW,344,6.0,12.0,97,0.00,,,0.00,,2013-03-09 22:51:00,
2013-03-09 15:01:00,48.0,47.0,30.53,WNW,299,9.0,12.0,97,0.00,,,0.00,,2013-03-09 23:01:00,
2013-03-09 15:11:00,48.0,47.0,30.53,WNW,299,9.0,12.0,97,0.00,,,0.00,,2013-03-09 23:11:00,
2013-03-09 15:21:00,48.0,47.0,30.52,WNW,289,4.0,8.0,97,0.00,,,0.00,,2013-03-09 23:21:00,
2013-03-09 15:31:00,49.0,48.0,30.53,North,0,1.0,11.0,96,0.00,,,0.00,,2013-03-09 23:31:00,
2013-03-09 15:41:00,49.0,48.0,30.53,North,0,1.0,11.0,96,0.00,,,0.00,,2013-03-09 23:41:00,
2013-03-09 15:52:00,49.0,48.0,30.52,WNW,289,5.0,11.0,96,0.00,,,0.00,,2013-03-09 23:52:00,
2013-03-09 16:01:00,49.0,48.0,30.53,NW,315,4.0,11.0,96,0.00,,,0.00,,2013-03-10 00:01:00,
2013-03-09 16:11:00,49.0,48.0,30.53,NW,315,4.0,11.0,96,0.00,,,0.00,,2013-03-10 00:11:00,
2013-03-09 16:21:00,49.0,48.0,30.53,NW,315,5.0,12.0,96,0.00,,,0.00,,2013-03-10 00:21:00,
2013-03-09 16:31:00,49.0,48.0,30.53,North,2,2.0,7.0,96,0.00,,,0.00,,2013-03-10 00:31:00,
2013-03-09 16:42:00,49.0,48.0,30.53,North,2,2.0,7.0,96,0.00,,,0.00,,2013-03-10 00:42:00,
2013-03-09 16:51:00,48.0,47.0,30.53,NW,323,3.0,8.0,96,0.00,,,0.00,,2013-03-10 00:51:00,
2013-03-09 17:01:00,48.0,47.0,30.52,North,0,0.0,7.0,96,0.00,,,0.00,,2013-03-10 01:01:00,
2013-03-09 17:11:00,48.0,47.0,30.52,North,0,0.0,7.0,96,0.00,,,0.00,,2013-03-10 01:11:00,
2013-03-09 17:21:00,48.0,47.0,30.53,WNW,301,5.0,7.0,96,0.00,,,0.00,,2013-03-10 01:21:00,
2013-03-09 17:31:00,48.0,47.0,30.53,WNW,292,2.0,8.0,96,0.00,,,0.00,,2013-03-10 01:31:00,
2013-03-09 17:41:00,48.0,47.0,30.53,WNW,292,2.0,8.0,96,0.00,,,0.00,,2013-03-10 01:41:00,
2013-03-09 17:52:00,48.0,47.0,30.54,NW,310,0.0,9.0,97,0.00,,,0.00,,2013-03-10 01:52:00,
2013-03-09 18:01:00,47.0,46.0,30.54,NNW,333,0.0,10.0,97,0.00,,,0.00,,2013-03-10 02:01:00,
2013-03-09 18:11:00,47.0,46.0,30.54,NNW,333,0.0,10.0,97,0.00,,,0.00,,2013-03-10 02:11:00,
2013-03-09 18:22:00,46.0,45.0,30.54,North,0,0.0,5.0,98,0.00,,,0.00,,2013-03-10 02:22:00,
2013-03-09 18:31:00,46.0,45.0,30.55,North,0,0.0,5.0,98,0.00,,,0.00,,2013-03-10 02:31:00,
2013-03-09 18:41:00,46.0,45.0,30.55,North,0,0.0,5.0,98,0.00,,,0.00,,2013-03-10 02:41:00,
2013-03-09 18:51:00,45.0,45.0,30.56,North,0,0.0,7.0,99,0.00,,,0.00,,2013-03-10 02:51:00,
2013-03-09 19:01:00,44.0,44.0,30.56,North,0,0.0,0.0,99,0.00,,,0.00,,2013-03-10 03:01:00,
2013-03-09 19:11:00,43.0,43.0,30.57,North,0,0.0,0.0,100,0.00,,,0.00,,2013-03-10 03:11:00,
2013-03-09 19:21:00,43.0,43.0,30.57,North,0,0.0,0.0,100,0.00,,,0.00,,2013-03-10 03:21:00,
2013-03-09 19:31:00,42.0,42.0,30.58,North,0,0.0,0.0,100,0.00,,,0.00,,2013-03-10 03:31:00,
2013-03-09 19:41:00,42.0,42.0,30.58,North,0,0.0,0.0,100,0.00,,,0.00,,2013-03-10 03:41:00,
2013-03-09 19:52:00,42.0,42.0,30.58,North,0,0.0,0.0,100,0.00,,,0.00,,2013-03-10 03:52:00,
2013-03-09 20:01:00,42.0,42.0,30.57,North,0,0.0,0.0,100,0.00,,,0.00,,2013-03-10 04:01:00,
2013-03-09 20:11:00,42.0,42.0,30.57,North,0,0.0,0.0,100,0.00,,,0.00,,2013-03-10 04:11:00,
2013-03-09 20:21:00,41.0,41.0,30.57,North,0,0.0,0.0,100,0.00,,,0.00,,2013-03-10 04:21:00,
2013-03-09 20:31:00,41.0,41.0,30.57,North,0,0.0,0.0,100,0.00,,,0.00,,2013-03-10 04:31:00,
2013-03-09 20:41:00,41.0,41.0,30.57,North,0,0.0,0.0,100,0.00,,,0.00,,2013-03-10 04:41:00,
2013-03-09 20:51:00,40.0,40.0,30.57,North,0,0.0,0.0,100,0.00,,,0.00,,2013-03-10 04:51:00,
2013-03-09 21:01:00,39.0,39.0,30.55,North,0,0.0,0.0,100,0.00,,,0.00,,2013-03-10 05:01:00,
2013-03-09 21:11:00,39.0,39.0,30.55,North,0,0.0,0.0,100,0.00,,,0.00,,2013-03-10 05:11:00,
2013-03-09 21:21:00,39.0,39.0,30.56,North,0,0.0,0.0,100,0.00,,,0.00,,2013-03-10 05:21:00,
2013-03-09 21:31:00,38.0,38.0,30.56,North,0,0.0,0.0,100,0.00,,,0.00,,2013-03-10 05:31:00,
2013-03-09 21:42:00,38.0,38.0,30.57,North,0,0.0,0.0,100,0.00,,,0.00,,2013-03-10 05:42:00,
2013-03-09 21:52:00,38.0,38.0,30.57,North,0,0.0,0.0,100,0.00,,,0.00,,2013-03-10 05:52:00,
2013-03-09 22:01:00,37.0,37.0,30.58,North,0,0.0,0.0,100,0.00,,,0.00,,2013-03-10 06:01:00,
2013-03-09 22:11:00,37.0,37.0,30.58,North,0,0.0,0.0,100,0.00,,,0.00,,2013-03-10 06:11:00,
2013-03-09 22:21:00,37.0,37.0,30.58,North,0,0.0,0.0,100,0.00,,,0.00,,2013-03-10 06:21:00,
2013-03-09 22:31:00,37.0,37.0,30.58,North,0,0.0,0.0,100,0.00,,,0.00,,2013-03-10 06:31:00,
2013-03-09 22:41:00,36.0,36.0,30.58,North,0,0.0,0.0,100,0.00,,,0.00,,2013-03-10 06:41:00,
2013-03-09 22:51:00,36.0,36.0,30.58,North,0,0.0,0.0,100,0.00,,,0.00,,2013-03-10 06:51:00,
2013-03-09 23:01:00,35.0,35.0,30.57,North,0,0.0,0.0,100,0.00,,,0.00,,2013-03-10 07:01:00,
2013-03-09 23:11:00,35.0,35.0,30.57,North,0,0.0,0.0,100,0.00,,,0.00,,2013-03-10 07:11:00,
2013-03-09 23:21:00,35.0,35.0,30.57,North,0,0.0,0.0,100,0.00,,,0.00,,2013-03-10 07:21:00,
2013-03-09 23:31:00,35.0,35.0,30.56,North,0,0.0,0.0,100,0.00,,,0.00,,2013-03-10 07:31:00,
2013-03-09 23:41:00,35.0,35.0,30.55,North,0,0.0,0.0,100,0.00,,,0.00,,2013-03-10 07:41:00,
2013-03-09 23:52:00,35.0,35.0,30.55,North,0,0.0,0.0,100,0.00,,,0.00,,2013-03-10 07:52:00,